Theta_e
335 335 336 337 336 334 334 334 334 333 332 331 330 328 328 327 326 326 326 325 322 318 316 316 313 307 301 299 299 299 299 299 299 300 299 299 299 299 299 299 298 298 298 298 297 297 297 298 298 298 298 298 298 298 297 298 299 299 299 300 299 298 297 297 298 298 298 299 298 298 299 300 300 300 300 301 301 301 300 298 297 297 296 296 297
336 335 337 337 336 335 334 334 334 333 332 331 330 329 328 327 327 327 326 325 321 318 316 315 311 305 300 299 299 299 299 299 299 299 299 299 299 298 298 299 298 298 298 297 298 297 298 298 297 297 297 297 298 298 297 298 299 299 298 298 298 297 297 296 297 298 298 298 298 298 299 300 300 300 300 300 301 300 299 297 297 296 296 296 296
337 336 337 337 337 336 335 334 334 333 332 331 330 329 328 328 327 327 326 325 321 317 315 313 309 304 300 299 298 299 299 299 299 299 299 299 298 298 299 299 298 298 298 298 298 297 298 297 297 297 297 297 297 297 297 297 299 298 297 297 298 297 296 296 297 298 298 298 298 298 299 299 300 300 300 300 300 299 297 296 296 296 296 296 296
337 337 337 337 336 336 335 334 333 332 332 331 330 330 329 328 328 326 326 325 319 315 314 312 308 304 302 300 299 298 298 298 298 298 298 299 298 298 299 298 298 297 297 297 297 297 297 297 297 296 297 297 297 297 297 297 297 297 297 296 297 297 296 296 297 298 298 298 298 298 299 299 300 299 299 300 299 297 296 296 296 295 296 296 296
338 337 336 336 336 335 335 334 333 332 332 331 330 330 329 329 328 327 327 324 318 314 313 311 308 306 303 301 299 298 299 298 298 299 298 298 298 298 299 298 298 298 298 297 297 297 297 297 296 297 297 297 297 297 297 297 297 297 297 296 296 296 296 296 296 297 297 298 298 298 298 299 299 299 299 299 298 296 296 296 295 295 296 295 296
338 337 336 336 335 334 334 334 333 333 332 331 330 330 329 328 327 327 326 322 317 314 313 310 309 307 304 303 300 299 299 298 298 298 298 298 298 298 298 298 299 299 298 297 297 297 297 297 297 297 297 297 297 297 296 296 297 297 297 297 296 297 296 296 296 296 296 297 297 297 297 298 298 299 299 298 296 296 296 295 295 295 295 295 295
338 337 336 335 335 334 333 332 332 333 332 331 331 330 329 328 327 326 325 320 316 314 312 310 309 306 305 304 303 302 301 299 298 298 298 298 298 298 298 299 299 299 298 297 297 297 297 297 297 297 297 296 296 296 296 296 296 297 297 297 297 297 296 296 296 296 295 296 296 296 296 296 297 298 297 295 295 295 295 295 295 295 295 295 296
337 336 336 335 334 333 332 332 332 333 332 332 331 330 329 327 326 326 323 318 316 313 311 309 308 307 307 307 306 305 302 299 299 299 298 298 299 299 300 300 299 298 298 297 296 296 296 296 296 296 296 296 296 296 296 296 296 296 296 296 297 296 296 296 296 295 295 295 295 295 295 295 296 296 295 295 295 295 294 295 295 295 295 295 295
337 336 335 334 333 332 332 332 333 333 332 331 330 329 328 327 325 324 320 317 315 313 310 309 308 308 308 307 305 303 301 299 300 299 298 298 299 299 300 300 299 298 299 299 297 296 296 296 296 296 295 295 296 295 296 296 296 296 297 296 296 296 296 296 296 296 295 295 295 295 295 295 295 295 295 295 295 295 295 295 295 295 295 295 296
336 336 335 334 333 332 332 333 333 332 331 330 329 329 327 325 323 321 318 316 315 312 309 309 308 308 307 305 303 301 300 300 300 299 298 298 298 298 299 301 300 298 299 300 297 296 298 297 295 296 295 295 296 295 296 296 296 296 297 296 296 296 296 296 296 297 296 295 295 295 294 295 295 295 295 295 295 295 295 295 296 296 296 296 296
336 335 334 333 333 332 332 333 333 332 330 329 328 328 326 323 322 319 317 316 315 311 309 309 308 306 305 304 303 303 301 300 299 299 298 298 298 299 300 302 302 299 299 300 297 298 302 301 295 295 295 295 295 295 295 296 296 296 296 296 296 297 297 297 298 298 297 296 295 295 294 295 295 295 295 296 296 296 296 296 296 296 296 296 297
336 335 333 332 333 333 332 332 333 331 330 329 328 327 324 321 319 318 317 317 315 312 310 308 306 303 303 306 306 303 300 300 299 298 300 300 299 300 300 301 302 302 301 301 300 300 303 302 296 295 296 295 295 296 296 296 296 296 296 296 297 298 299 299 300 300 299 297 295 294 295 295 296 296 296 297 297 297 297 296 296 296 296 297 297
335 334 333 332 332 331 331 332 332 330 329 329 328 326 323 320 318 318 319 318 316 314 310 306 304 302 303 307 307 302 300 301 299 298 301 301 300 301 303 302 303 304 303 303 304 305 304 302 297 295 296 295 295 296 296 296 296 296 296 296 298 299 299 301 302 301 300 297 295 294 295 296 297 297 298 298 298 298 297 297 297 297 297 297 298
334 333 331 330 330 330 331 332 330 329 329 329 327 325 323 321 320 319 320 320 317 314 309 304 302 302 303 306 305 302 301 300 299 299 301 302 300 301 305 305 304 305 304 304 306 307 306 303 299 299 299 298 296 295 296 296 296 296 296 297 298 298 299 302 303 301 299 296 295 295 297 298 299 299 298 299 299 298 298 297 297 297 297 297 298
333 332 330 330 330 331 331 330 330 329 328 329 327 325 323 322 321 320 320 319 317 314 309 303 301 301 303 305 304 302 301 299 299 299 300 301 300 301 306 306 304 304 306 306 306 306 305 302 302 303 303 300 297 295 295 295 296 296 296 297 297 297 300 303 302 299 297 295 296 297 298 299 299 299 299 299 299 298 298 297 297 297 297 297 297
332 331 331 330 331 331 330 330 329 329 329 328 328 325 324 323 322 321 319 318 316 314 308 302 300 300 302 303 302 302 300 299 298 299 298 298 298 301 304 305 303 305 307 306 305 303 302 300 299 302 302 299 296 295 295 295 296 296 296 297 296 297 301 302 299 297 296 296 298 299 299 300 299 299 299 299 298 298 298 297 297 297 297 297 297
331 330 330 331 331 331 330 330 330 330 329 328 327 326 325 324 323 322 319 316 315 313 307 301 299 301 301 301 301 302 301 300 298 298 297 295 296 299 302 303 304 306 306 304 301 299 298 297 296 298 299 298 296 295 296 296 296 296 297 297 296 297 299 298 296 296 297 298 299 300 300 300 299 299 299 298 298 298 298 297 297 297 297 298 297
331 330 329 330 330 329 329 329 329 328 328 328 327 326 325 324 324 322 319 316 315 312 307 302 300 301 299 298 300 303 304 302 300 297 295 295 295 297 299 302 304 304 303 300 297 297 298 297 295 297 298 297 296 296 296 296 296 296 297 297 297 297 296 296 296 297 299 300 300 300 300 300 299 299 299 299 298 298 298 298 297 297 297 297 297
331 330 329 329 328 326 325 325 326 327 327 328 327 326 326 325 324 322 319 316 314 312 308 304 301 299 296 297 302 306 306 304 302 298 295 295 295 295 297 300 301 301 300 299 297 298 300 298 295 295 296 295 296 295 296 296 296 296 297 297 297 296 296 296 297 298 299 300 300 300 300 300 300 299 299 299 299 299 299 298 298 297 297 297 297
331 329 328 327 326 324 324 325 327 328 328 328 327 326 327 325 324 321 318 315 312 310 306 302 300 298 297 299 304 307 307 305 303 299 296 294 294 295 295 298 300 300 301 302 301 300 300 298 295 295 295 295 296 295 296 296 296 296 297 297 296 296 296 297 298 299 300 300 301 301 300 300 300 300 300 300 299 299 299 299 298 298 298 297 297
330 329 328 326 325 324 326 327 328 328 328 328 327 326 326 325 323 320 317 313 310 306 303 301 301 301 300 301 304 306 305 304 301 298 296 295 295 295 294 296 300 302 302 303 302 301 300 298 295 295 295 295 295 295 296 297 296 296 297 297 296 296 297 298 299 300 300 301 301 301 300 300 300 300 300 300 299 300 300 299 299 298 298 298 298
329 328 327 325 323 325 327 328 328 327 327 327 326 326 325 323 321 318 315 311 307 304 302 302 303 303 302 302 304 305 303 300 298 296 296 296 295 294 294 295 300 303 303 303 303 302 301 300 298 297 297 296 296 295 296 296 296 296 297 297 297 297 298 300 300 300 300 301 301 300 300 300 300 300 300 300 300 300 300 299 299 299 298 298 297
329 328 326 324 324 326 328 328 327 327 327 327 326 325 324 322 319 316 313 309 306 304 302 302 303 303 302 302 303 302 299 298 297 296 296 296 295 294 294 295 300 303 303 303 303 303 302 302 301 300 300 298 296 295 296 296 296 296 297 298 298 298 300 300 301 300 300 301 301 300 300 300 300 300 300 300 300 300 300 299 299 299 298 297 297
328 326 324 322 325 327 328 327 327 327 327 326 325 324 323 321 318 314 311 309 307 305 303 303 304 302 302 303 303 300 297 296 296 295 296 296 295 294 294 295 299 302 302 303 303 302 302 303 302 301 301 299 297 296 296 296 296 297 298 299 299 300 300 301 301 300 300 301 301 300 300 300 300 300 300 300 300 300 300 300 299 299 298 297 296
326 324 323 323 326 327 328 328 328 327 327 326 324 323 322 320 316 314 311 310 308 306 306 307 304 302 302 303 302 299 296 295 295 295 295 295 294 294 294 294 297 299 300 302 303 302 302 303 302 301 300 298 296 296 296 296 297 299 300 300 300 300 301 301 301 301 300 301 301 300 300 300 300 300 300 300 300 300 300 299 299 299 299 297 296
326 324 324 325 326 327 328 328 327 326 325 324 323 323 321 319 316 314 312 310 308 308 307 304 302 302 303 303 301 298 296 295 296 295 295 295 294 294 294 294 295 297 298 301 301 301 302 302 302 301 299 297 295 296 296 297 299 301 301 301 301 301 301 301 301 301 300 301 301 300 299 300 300 300 300 300 300 300 299 300 299 299 299 298 298
326 324 323 324 326 327 328 328 327 326 324 323 322 320 319 318 317 315 312 311 309 307 305 302 301 303 303 301 300 298 297 295 296 295 294 294 294 294 295 295 294 295 296 298 300 300 301 301 301 300 298 296 295 296 296 298 301 302 302 302 302 302 301 301 301 301 301 301 301 300 299 300 300 300 300 300 300 300 300 300 299 299 299 299 299
326 324 324 325 327 328 328 328 327 325 323 322 321 320 319 318 317 315 313 312 309 306 304 302 301 301 301 299 299 299 297 296 296 296 295 295 295 295 295 295 295 294 295 296 298 299 299 299 299 298 296 295 295 296 297 299 302 303 302 302 302 302 302 301 301 301 301 301 301 300 300 300 300 300 300 300 299 299 300 300 299 300 300 299 299
325 325 325 326 327 327 327 327 326 325 323 322 321 320 319 318 316 315 313 311 310 307 306 304 301 299 299 299 298 298 297 296 296 296 295 295 295 295 296 295 295 295 295 294 295 297 297 297 296 296 295 295 295 296 298 301 303 303 303 303 303 302 302 301 301 301 301 301 301 301 300 300 300 300 300 299 299 300 300 300 299 299 299 299 299
324 324 325 326 327 327 327 327 326 324 323 322 320 318 317 315 314 313 311 310 309 307 307 305 302 298 298 298 298 297 296 296 296 296 295 295 295 295 295 295 295 295 295 294 294 295 295 295 295 295 295 295 296 298 300 302 303 303 302 302 302 301 301 301 301 301 300 301 301 301 301 300 300 300 299 299 299 300 299 299 300 299 299 299 299
325 324 324 326 327 327 326 326 325 323 321 321 320 318 315 313 311 311 310 310 309 308 307 305 301 297 297 297 297 296 296 297 297 296 295 295 295 295 295 295 295 295 294 294 293 294 294 295 295 295 295 296 298 299 301 302 302 302 302 301 301 301 301 301 301 300 300 301 301 301 301 300 300 300 299 299 299 299 299 299 300 299 299 299 299
325 324 324 325 327 327 325 324 324 322 321 319 317 316 314 313 311 309 309 309 308 308 307 304 300 297 296 296 297 297 298 298 299 298 297 296 295 294 295 295 294 294 294 294 294 294 294 294 295 295 295 296 297 298 300 301 301 302 302 302 302 302 302 302 301 301 301 301 301 301 301 300 300 299 299 299 299 299 299 300 300 299 299 299 299
323 322 322 324 325 325 324 323 323 322 321 319 316 314 314 314 312 310 308 307 306 307 307 304 301 298 296 296 298 300 299 300 300 300 298 296 295 294 295 295 295 295 294 294 294 294 294 294 294 295 295 295 296 298 299 301 301 301 302 302 302 302 302 302 301 301 301 301 301 301 300 300 299 299 299 300 299 299 299 299 299 299 299 299 299
322 321 321 322 324 325 324 323 322 321 320 318 316 314 314 314 313 312 310 309 307 307 306 303 301 299 297 297 299 302 302 301 301 301 300 299 297 295 294 294 295 295 295 294 294 294 294 294 294 295 295 295 297 299 300 301 302 302 302 302 302 302 302 302 301 301 301 301 301 301 300 299 299 299 300 300 299 299 299 299 299 299 299 299 299
322 321 321 322 324 325 325 324 322 322 321 319 317 316 315 313 312 313 312 311 310 308 307 304 302 301 299 297 298 301 302 302 302 301 301 301 300 297 295 294 294 295 295 294 294 294 294 294 295 295 295 295 297 299 301 302 302 303 302 302 302 302 302 302 302 302 301 301 301 300 300 299 300 300 300 300 299 299 299 299 299 299 299 299 299
321 321 321 322 323 323 324 324 323 322 321 320 318 317 315 314 313 312 312 311 310 309 308 307 305 303 301 299 298 298 300 301 301 301 301 301 301 299 297 295 294 294 294 294 294 294 294 294 294 295 295 294 296 299 301 302 302 303 302 303 303 303 302 302 302 301 301 301 301 300 299 299 300 300 300 299 299 299 299 299 299 299 299 299 299
321 322 323 323 323 323 323 322 321 321 321 320 318 317 315 313 312 312 310 310 310 309 308 308 306 304 303 302 300 298 298 299 301 301 301 301 301 300 298 296 295 295 294 294 294 294 294 294 294 294 295 295 296 299 302 302 302 303 303 303 303 303 303 302 302 301 301 301 300 300 299 299 300 300 299 299 299 299 299 299 299 299 299 299 299
321 322 323 323 323 323 323 322 321 320 318 317 316 315 313 311 310 311 310 310 310 309 307 307 306 305 305 303 302 301 300 299 300 300 301 301 301 299 298 297 297 296 295 295 295 294 294 294 294 295 295 294 296 299 301 302 302 302 303 303 303 303 303 302 302 301 301 300 300 299 299 299 299 299 299 299 299 299 299 299 299 299 299 299 299
322 322 323 323 323 323 322 321 321 319 317 315 314 313 312 311 311 311 311 310 309 308 307 306 306 306 305 304 303 302 302 301 300 300 300 300 299 299 298 297 297 297 296 296 296 296 296 297 297 297 297 296 297 299 301 302 302 303 303 303 303 303 303 302 302 301 301 300 300 299 299 299 299 299 299 299 299 299 299 299 299 299 299 299 299
322 323 322 322 321 321 320 319 319 319 317 315 314 314 313 313 313 312 311 310 309 308 307 306 306 306 305 305 304 303 302 301 300 300 299 299 299 298 298 297 297 297 297 297 297 297 299 301 300 299 299 299 299 300 301 302 303 303 303 303 303 303 302 302 301 301 300 300 299 299 299 299 299 299 299 299 299 299 299 299 299 299 299 299 299
323 323 322 321 320 320 319 318 317 317 316 315 315 315 315 314 313 312 311 310 309 308 308 307 307 306 306 306 305 304 302 301 300 299 299 298 298 297 296 296 296 297 297 297 296 297 300 301 301 300 299 300 300 301 302 303 303 303 303 303 303 303 302 302 301 300 300 300 299 299 299 299 299 299 299 299 299 299 299 299 299 299 299 299 299
322 322 321 320 320 319 319 318 317 316 315 315 315 315 315 314 313 311 310 310 309 309 308 308 307 307 306 306 305 304 303 302 300 300 299 298 297 296 295 295 295 296 298 297 297 297 299 301 301 300 300 300 301 302 302 303 303 303 303 303 303 302 302 301 301 300 300 300 300 299 299 299 299 299 299 299 299 299 299 299 299 299 298 298 298
321 320 320 320 319 318 318 317 317 316 316 316 315 314 313 312 311 310 310 310 309 309 309 308 307 307 306 305 305 304 303 302 301 300 299 299 298 296 295 294 294 296 297 298 297 298 300 301 301 300 299 300 301 302 302 302 302 303 302 302 302 302 301 301 300 300 300 300 300 300 300 299 299 299 298 298 299 299 299 299 299 298 298 298 298
318 318 318 319 319 318 317 317 316 316 316 316 316 314 313 311 310 310 309 309 309 309 308 308 307 306 305 304 303 303 302 301 300 299 299 299 298 296 295 294 294 296 297 298 298 298 299 301 301 300 299 299 300 301 302 302 302 302 302 302 302 302 301 301 301 301 301 301 300 300 299 299 299 299 299 299 299 299 299 298 298 298 298 298 299
317 316 317 318 318 318 317 317 316 316 316 316 315 314 313 312 311 310 309 309 309 308 307 306 306 305 304 303 302 302 301 301 300 299 297 297 297 296 294 293 294 295 297 298 298 298 299 301 301 300 299 299 300 301 301 301 302 302 302 303 302 302 302 302 302 302 301 301 301 300 300 300 300 299 299 299 298 298 298 298 298 298 298 298 299
317 316 315 316 317 317 317 316 316 316 315 315 314 313 312 312 311 310 310 309 308 307 306 305 305 305 304 303 302 302 301 301 300 299 297 296 296 296 295 294 295 297 299 300 300 300 300 301 301 299 298 299 300 301 301 301 301 302 302 302 302 302 302 302 302 301 301 301 301 301 301 300 300 300 300 299 298 298 298 298 298 298 298 299 299
316 315 314 314 315 316 317 317 316 315 315 314 313 312 311 311 311 310 309 309 307 306 306 306 305 305 304 303 303 302 302 301 300 299 298 298 298 298 298 297 298 300 302 302 301 301 300 300 300 299 299 299 300 300 301 301 301 301 301 301 301 301 301 301 301 301 301 301 301 301 301 301 300 300 299 298 298 298 298 298 298 298 298 299 299
315 315 314 314 315 315 316 316 315 315 314 314 313 312 311 311 310 309 309 308 307 306 306 306 306 305 304 303 303 302 302 302 301 300 299 299 300 300 300 300 301 301 302 301 301 301 300 300 300 300 300 299 300 300 301 302 302 302 301 301 301 301 301 301 301 301 301 301 301 301 300 300 299 299 299 298 298 299 298 298 298 298 298 298 298
314 314 314 314 314 314 314 314 314 313 313 312 311 311 311 310 309 309 308 308 307 306 306 306 305 305 304 303 303 303 302 302 301 301 300 300 300 301 301 302 302 302 301 301 301 301 300 299 299 299 299 299 300 301 302 302 302 302 302 301 301 301 301 301 300 300 300 300 300 300 299 299 299 299 299 299 299 298 298 298 299 298 298 298 298
314 314 314 313 313 312 312 312 312 311 311 311 310 310 310 310 309 309 308 307 306 306 305 305 305 304 304 303 303 302 302 302 302 301 300 300 300 301 301 302 302 302 301 301 301 301 300 299 300 299 299 299 300 301 302 302 302 302 302 302 301 301 301 300 300 300 300 300 300 299 299 299 299 299 299 299 299 299 299 299 299 299 299 299 299
314 314 313 313 312 311 311 311 311 310 311 311 310 310 310 310 309 308 307 306 306 305 305 305 305 304 304 303 303 303 303 302 302 302 301 300 299 299 300 301 301 301 301 301 301 300 300 299 299 299 298 299 300 301 302 302 302 302 302 301 301 301 301 301 301 300 300 299 299 299 299 299 299 299 299 299 299 299 299 299 299 299 299 299 299
Wind_Speed
34 35 33 31 31 31 31 29 28 27 25 22 21 20 21 21 18 14 10 8 11 14 14 13 14 16 16 16 17 16 17 18 17 17 16 15 15 14 14 13 12 11 11 11 11 10 9 8 7 7 7 8 7 5 5 6 5 5 4 4 4 6 9 9 11 14 13 13 17 19 19 20 22 24 23 24 25 26 28 32 33 35 37 38 37
35 35 34 32 30 31 31 30 29 29 26 23 21 20 20 20 18 14 11 9 9 13 16 16 16 16 16 17 17 16 18 18 17 17 17 16 16 14 14 13 12 11 11 11 10 9 9 8 7 6 6 6 6 5 4 4 4 3 2 3 4 6 9 10 12 15 17 17 19 20 20 20 22 23 23 24 25 26 30 32 33 35 37 37 37
36 35 35 34 32 32 32 31 31 30 28 26 23 21 20 20 19 16 13 10 11 15 17 17 17 16 16 17 17 17 18 18 17 18 17 16 15 14 14 12 12 11 11 11 10 9 9 8 7 7 6 6 5 5 4 2 3 2 2 3 4 6 8 10 11 14 18 20 21 22 22 22 22 23 23 23 23 27 31 32 34 36 37 37 37
38 36 36 35 33 32 33 33 32 31 29 27 25 22 21 22 20 18 14 10 11 17 18 18 17 17 17 17 17 17 18 18 18 18 17 15 15 14 13 12 11 11 11 11 10 10 9 8 8 7 7 6 5 5 4 1 1 1 2 3 4 6 8 10 11 13 16 20 21 22 22 22 22 23 23 22 24 29 31 32 35 37 37 38 37
38 36 36 36 33 33 34 34 33 32 29 28 27 24 23 23 21 19 16 11 13 19 19 18 18 17 17 17 17 18 18 18 18 18 17 16 15 14 13 12 12 11 12 12 11 10 10 9 8 8 7 6 5 4 3 1 0 0 1 3 5 7 9 11 12 13 15 19 21 22 21 21 22 23 22 23 28 31 30 31 35 37 38 38 38
38 36 36 37 35 35 35 35 34 32 30 29 28 26 25 24 23 21 17 13 16 20 20 19 19 18 17 17 17 18 17 17 18 17 17 16 15 14 13 13 13 13 12 12 11 11 10 9 8 8 7 5 4 3 3 1 1 1 3 4 6 8 10 12 13 14 14 17 20 21 21 22 23 22 22 25 30 31 32 34 36 37 38 40 40
37 36 36 36 35 35 36 36 35 32 31 31 30 27 26 25 24 22 18 16 18 20 21 20 19 19 18 17 16 16 16 16 16 16 16 16 15 14 14 14 14 13 11 11 11 11 10 10 9 7 6 5 3 3 2 1 1 3 4 6 8 9 11 13 14 15 16 17 19 21 22 23 23 23 25 28 29 30 33 37 39 39 39 40 42
36 35 35 35 35 36 37 36 33 32 33 33 30 27 27 26 24 21 18 18 20 21 21 22 20 19 18 17 17 16 17 17 16 16 16 15 15 14 14 14 13 12 11 11 11 11 10 10 9 6 5 4 3 2 2 1 2 4 5 7 9 11 12 14 15 16 18 20 22 23 24 25 24 25 28 30 30 31 34 36 39 41 41 42 43
36 35 35 36 36 37 36 35 32 32 33 32 30 28 28 26 23 20 20 21 21 21 22 22 22 21 20 20 20 19 19 20 19 19 18 18 17 16 14 13 13 13 12 11 11 11 11 10 7 6 6 5 3 3 2 2 3 5 6 8 10 11 13 14 16 17 20 23 25 25 27 27 26 28 30 29 29 32 35 36 39 41 43 44 44
37 35 35 35 36 36 35 35 34 34 33 32 31 31 30 26 23 21 22 22 21 22 23 23 23 24 24 24 23 21 21 21 22 21 21 19 17 16 15 14 13 13 12 11 11 11 10 9 7 6 6 5 3 4 3 3 4 6 8 9 10 11 13 16 18 19 22 25 26 27 28 27 27 28 29 29 30 33 36 38 40 42 44 46 46
38 37 35 35 36 36 36 37 37 35 34 33 33 33 30 25 23 22 23 22 22 24 26 26 26 27 26 23 20 20 21 23 23 22 21 19 17 16 15 14 13 12 12 11 10 10 9 8 7 7 6 5 5 5 4 3 5 7 8 10 11 12 15 17 19 20 23 26 27 28 28 27 27 28 28 29 32 34 37 39 40 43 45 47 47
39 37 35 35 36 37 37 37 36 35 34 34 34 32 28 24 23 23 24 24 25 27 28 28 28 28 26 19 18 21 24 25 24 22 20 19 18 17 16 15 14 12 11 10 8 8 9 9 7 7 7 6 6 5 3 3 5 7 9 10 11 13 16 18 19 20 23 26 28 29 28 27 27 27 28 30 33 35 37 38 40 42 44 45 45
39 37 36 35 36 36 37 36 35 35 35 33 33 32 29 26 25 25 26 26 26 26 28 28 29 30 26 18 18 23 25 24 23 23 22 21 19 17 15 14 13 12 11 9 6 7 10 10 8 7 6 6 5 4 4 5 6 8 10 11 11 13 15 16 18 20 24 26 28 29 27 25 26 27 29 31 33 36 37 39 40 41 42 42 43
39 37 35 34 35 34 34 35 35 36 35 33 34 32 30 28 27 27 27 25 25 27 29 30 30 29 25 20 19 23 25 24 24 24 23 22 20 18 15 12 13 12 10 9 10 12 14 11 8 6 7 7 5 4 4 5 7 8 10 11 11 12 13 14 16 20 23 25 27 27 24 22 25 28 30 31 32 34 36 39 40 40 40 40 41
39 37 34 33 33 33 33 35 37 37 35 33 34 33 31 30 29 28 26 25 25 27 30 31 30 28 26 22 21 22 24 25 25 24 23 23 22 20 18 15 14 13 12 13 17 18 16 12 8 7 9 10 6 4 5 6 7 9 10 10 10 9 10 12 15 18 21 22 22 21 21 22 26 29 30 30 31 32 34 36 38 39 39 40 41
36 35 34 34 33 31 32 36 37 37 35 35 35 34 33 32 29 28 26 24 24 25 27 30 30 28 27 25 22 22 24 25 24 22 23 24 23 22 20 17 14 13 15 18 19 17 15 14 12 12 13 12 7 5 6 6 7 9 9 9 9 9 8 11 14 16 17 16 16 18 21 24 27 28 29 30 30 31 33 35 37 38 39 40 41
33 34 33 32 32 32 33 35 36 36 35 35 35 35 34 32 30 29 27 25 24 23 25 28 29 27 26 24 22 22 23 23 22 22 23 24 24 25 22 18 15 15 18 18 15 14 15 14 13 13 13 12 8 6 6 7 7 8 9 9 10 9 8 10 13 13 12 14 16 20 23 24 25 26 27 28 29 30 32 35 37 38 39 39 41
34 34 31 29 30 30 31 32 33 34 34 33 35 35 33 31 30 29 28 25 23 23 24 26 26 24 23 23 23 22 22 22 21 21 22 23 24 26 24 19 16 16 17 15 12 13 14 13 12 13 13 9 6 6 7 7 7 8 9 10 10 10 9 11 12 11 12 16 19 21 22 23 24 24 25 26 27 29 32 35 37 37 37 39 40
34 32 30 31 30 29 29 30 31 33 32 30 31 32 30 29 29 29 27 24 22 22 24 25 24 22 22 23 22 21 22 22 22 21 22 23 24 25 25 19 13 12 12 12 11 13 14 13 12 13 12 8 6 7 7 7 8 9 10 11 11 10 9 11 12 13 16 19 20 21 21 21 22 23 24 27 28 30 32 34 35 35 36 38 40
35 33 33 34 31 29 29 29 29 30 30 28 29 29 28 28 28 28 25 22 21 22 23 23 22 22 22 23 22 23 23 23 22 21 21 22 23 24 24 19 12 9 10 11 11 12 14 13 12 13 12 9 8 9 8 8 8 9 10 11 11 10 9 11 13 14 17 19 20 20 20 20 21 23 25 27 29 31 32 33 34 35 36 37 39
34 35 34 32 29 30 30 27 27 30 31 29 29 29 29 29 28 27 25 22 21 21 21 21 21 22 23 23 23 26 27 25 21 21 22 22 22 23 23 20 16 12 12 12 12 13 14 13 11 11 12 10 9 9 8 8 8 9 10 10 10 9 8 11 14 15 17 18 18 19 19 20 22 23 25 28 30 31 32 33 35 36 37 37 38
33 34 33 30 29 30 30 28 29 32 32 31 31 31 30 29 27 27 25 22 21 23 24 24 25 25 25 25 24 27 29 26 21 21 23 23 23 23 23 22 20 17 15 13 12 12 13 13 11 10 10 10 9 8 9 9 9 9 9 9 9 7 7 10 13 15 17 17 16 18 20 20 22 24 25 28 30 31 31 33 35 38 39 38 37
36 34 33 33 31 27 27 29 31 31 30 30 30 30 29 28 27 27 25 24 24 27 28 27 26 25 24 23 24 27 29 25 21 22 23 23 23 24 24 23 21 19 17 14 11 12 14 14 13 12 11 10 9 9 9 9 9 9 8 7 8 6 6 8 11 14 17 16 15 18 20 20 22 24 26 28 29 30 31 33 35 38 40 39 36
34 33 34 34 31 27 27 29 29 29 29 29 29 28 27 28 28 28 27 27 28 29 27 25 25 24 23 22 24 28 28 24 20 21 23 23 23 24 25 25 23 21 19 17 15 15 16 16 16 16 14 12 11 10 10 9 8 8 7 7 7 6 5 7 9 12 15 15 14 17 19 19 21 24 25 27 28 28 30 31 32 35 39 39 37
32 32 32 33 33 31 31 30 29 29 29 27 26 27 28 28 29 29 29 30 30 27 24 22 22 22 23 24 26 27 26 23 21 22 22 23 23 24 25 26 25 23 21 21 20 19 19 19 18 18 16 13 12 11 10 8 7 6 6 6 7 7 6 6 7 10 15 14 13 17 19 18 20 23 23 25 26 27 29 31 31 34 38 39 39
29 26 27 30 33 34 33 32 31 30 28 26 25 26 27 28 29 30 30 30 28 25 23 22 22 24 24 25 25 24 25 24 23 23 23 23 25 25 26 26 25 24 24 23 22 20 20 21 20 19 16 13 12 11 9 7 6 6 6 6 7 7 7 6 5 9 14 12 11 17 19 18 19 22 22 23 26 27 28 31 32 34 36 39 40
28 26 27 29 32 34 34 34 33 31 28 27 26 26 27 27 29 30 30 30 27 24 24 24 26 26 25 24 22 22 24 25 24 24 24 25 25 26 26 26 26 25 25 25 24 22 22 22 21 19 17 14 12 11 9 7 6 7 7 7 8 7 8 9 9 11 12 9 12 18 19 17 19 22 22 23 26 26 27 29 32 34 35 37 40
32 32 30 27 28 29 29 30 31 32 30 28 27 27 27 27 28 29 29 29 27 26 26 27 27 27 25 23 22 23 25 26 25 25 25 25 26 26 26 25 25 25 25 26 25 24 23 22 20 19 17 15 13 11 10 8 5 7 8 9 9 9 11 12 12 12 11 10 15 19 18 16 20 22 21 22 25 26 26 28 30 32 34 36 38
34 34 31 27 25 25 23 22 25 28 30 29 27 27 26 27 29 29 27 27 27 26 25 25 26 26 25 24 25 26 27 26 24 23 23 24 24 24 24 24 24 24 24 25 26 26 24 22 21 19 17 15 13 11 9 6 6 9 9 8 7 9 11 11 11 11 11 13 17 18 16 16 19 20 19 22 24 25 25 27 29 31 33 35 38
35 33 31 29 28 26 24 23 22 24 27 28 28 28 27 27 27 26 26 26 26 24 22 22 23 24 25 25 26 26 25 23 21 20 21 22 21 21 21 21 22 22 22 23 25 26 25 22 20 18 16 14 13 11 8 7 8 11 10 9 10 12 12 11 12 13 13 14 16 16 15 16 18 18 19 21 23 24 25 27 29 30 32 35 37
35 32 30 30 30 29 28 27 24 24 26 27 29 30 29 27 25 24 25 25 24 23 21 20 21 23 24 24 24 22 20 19 20 19 19 19 20 20 20 20 20 20 21 22 23 25 24 21 19 17 16 15 13 12 11 10 11 13 13 13 13 13 12 13 14 13 12 13 15 15 15 16 17 18 19 20 21 23 24 26 28 29 31 34 37
31 30 29 31 31 30 29 28 26 26 27 28 30 31 31 30 28 25 23 23 22 22 20 19 21 23 23 22 20 19 18 18 18 18 16 17 19 20 20 20 20 20 20 21 22 23 23 21 19 17 16 15 14 13 12 11 12 13 14 13 13 13 14 14 14 12 12 14 14 14 14 15 17 18 18 18 19 21 22 24 27 29 31 33 35
25 27 28 29 28 27 27 28 27 27 28 30 31 31 30 31 32 29 25 23 23 21 19 19 21 22 21 20 19 18 19 20 19 17 15 16 18 20 19 19 20 20 20 21 21 21 21 20 19 17 15 14 13 11 10 10 12 14 13 12 12 13 14 13 12 12 13 13 12 12 14 16 17 17 16 16 18 20 21 23 26 28 31 33 34
20 24 25 23 23 24 26 28 29 27 27 30 32 31 30 31 32 31 29 28 26 23 21 22 22 21 20 22 22 19 19 20 20 17 16 16 17 19 19 20 20 19 19 20 20 21 20 20 19 18 16 15 14 11 10 11 13 13 13 13 14 14 14 13 13 13 13 12 13 15 16 16 15 14 14 16 18 19 20 22 24 26 30 31 32
23 25 21 17 19 23 23 25 27 26 26 29 32 32 31 31 30 30 30 30 27 24 23 24 24 22 22 23 24 22 20 20 19 18 18 18 18 18 19 20 21 21 20 21 21 21 21 20 20 19 18 17 15 12 12 13 14 15 15 15 14 13 13 12 12 13 13 14 16 17 15 15 14 13 14 16 18 19 20 21 22 26 28 29 31
21 23 21 18 18 19 20 23 26 24 24 27 30 31 31 30 28 28 29 29 27 25 24 24 25 24 23 24 25 25 23 20 19 20 21 21 20 19 20 21 22 22 21 21 22 21 21 20 20 20 19 17 15 12 11 13 15 16 16 15 14 13 13 12 12 13 14 16 18 18 16 15 13 13 14 16 18 19 19 20 22 25 26 27 30
17 18 20 20 18 16 18 22 24 24 24 25 28 29 29 28 26 25 26 26 25 24 24 25 25 26 26 25 25 26 25 22 20 21 22 23 22 22 21 21 21 22 22 21 21 21 20 20 20 20 19 18 16 13 12 14 16 15 15 15 15 15 15 14 14 15 16 18 19 18 15 14 13 12 13 16 17 18 18 20 23 24 23 25 28
13 12 14 16 16 17 18 20 23 25 25 25 26 27 26 25 24 23 23 23 22 21 22 24 26 28 30 29 28 28 27 26 25 24 25 25 25 24 23 22 22 22 22 21 20 19 19 19 19 19 19 18 16 15 14 14 16 16 16 16 16 15 15 15 15 16 17 17 17 15 14 13 13 13 14 16 16 17 19 20 21 21 21 23 27
11 10 11 13 15 18 21 22 23 25 26 26 27 27 26 26 26 24 23 21 18 17 18 21 23 27 29 30 31 31 31 30 30 30 29 28 27 27 26 25 25 24 23 21 19 17 16 15 14 14 14 14 13 13 13 14 15 16 15 16 16 15 15 15 16 16 16 15 14 14 14 14 14 14 15 16 16 17 19 20 20 20 21 24 26
14 14 14 15 16 18 21 24 25 24 25 27 28 27 27 27 26 25 23 19 17 17 18 19 20 23 26 28 30 32 34 34 34 33 33 32 31 30 29 28 28 27 25 23 20 17 15 14 13 13 13 13 13 12 13 15 17 17 17 17 17 16 16 16 16 16 15 14 14 14 14 14 15 16 16 16 16 18 19 20 19 20 22 24 26
16 16 17 17 16 16 19 22 23 22 23 25 26 25 25 24 23 22 20 18 19 20 19 17 17 19 22 25 26 27 29 32 34 35 35 35 35 34 33 32 31 29 27 25 22 18 16 15 15 15 15 15 15 15 15 16 17 17 17 16 16 16 17 17 16 16 15 14 14 14 14 15 16 17 17 17 17 19 20 19 20 21 23 25 26
16 16 18 18 17 17 18 19 20 20 21 23 23 23 22 21 21 20 19 19 20 21 20 18 17 17 21 24 25 22 22 25 30 33 36 36 36 36 35 35 34 32 29 26 23 19 18 18 19 19 18 16 16 16 17 17 17 17 18 17 16 16 17 17 17 17 16 16 16 16 16 16 16 16 17 17 17 18 20 20 21 22 23 24 24
12 13 17 18 17 18 18 18 19 20 21 22 23 23 22 20 19 19 19 19 20 20 19 18 18 19 21 24 25 23 21 20 22 27 33 36 36 36 35 34 34 32 29 26 24 22 20 20 21 22 21 20 19 18 18 18 19 19 20 20 20 20 19 19 19 19 18 18 17 17 17 17 17 17 17 16 16 18 20 21 21 21 22 22 22
8 9 15 18 18 18 18 18 19 20 21 22 23 23 23 22 19 17 17 18 19 19 20 19 19 20 22 23 23 23 21 19 19 22 27 31 34 34 32 32 32 32 29 27 25 23 22 22 23 22 20 19 20 20 20 20 19 19 19 19 19 19 18 19 19 19 19 19 18 17 17 17 17 15 15 16 18 20 21 21 20 20 21 21 22
9 8 11 16 19 20 20 19 19 20 20 21 21 22 23 23 20 17 16 17 18 19 20 19 18 20 22 23 22 22 21 20 20 20 22 26 30 30 29 29 30 29 27 26 25 24 23 23 24 23 20 18 19 21 21 20 18 18 18 18 18 19 19 19 19 19 19 19 18 17 17 16 15 14 15 18 20 21 21 20 19 20 20 21 23
12 8 9 13 18 22 22 21 21 21 21 22 21 21 23 24 22 19 17 17 18 19 19 18 19 20 22 23 23 23 22 22 21 21 21 23 25 26 27 27 25 23 21 20 21 22 23 25 25 24 22 22 22 23 23 21 20 21 21 21 20 20 20 19 19 19 19 19 18 18 17 15 14 15 18 20 21 21 21 19 18 19 21 22 23
13 10 8 10 15 20 22 22 21 22 22 23 22 21 21 22 22 21 20 19 20 20 20 19 20 21 22 22 22 22 21 20 20 21 23 23 23 24 24 23 22 21 19 18 18 20 22 23 23 22 22 23 22 22 21 21 22 23 23 22 21 21 20 20 19 18 17 16 15 14 14 14 16 19 21 22 21 21 20 18 18 19 20 22 23
13 11 9 9 13 18 20 21 21 22 21 21 20 20 19 19 21 21 20 20 20 20 20 20 19 20 21 21 21 20 19 18 18 20 22 23 24 23 22 21 22 23 23 22 20 20 21 22 21 21 22 22 21 20 20 22 24 25 24 22 21 21 20 20 19 18 17 16 16 16 16 18 20 23 23 22 21 20 19 18 19 20 21 22 23
12 10 9 9 12 15 17 19 19 19 19 18 18 19 19 20 21 22 21 22 22 22 22 21 20 20 20 21 20 20 20 19 18 18 21 24 26 26 24 25 26 27 26 25 23 22 22 22 22 22 22 21 20 19 20 22 24 26 26 25 25 24 22 21 20 20 20 21 21 21 21 21 21 22 23 22 21 20 19 19 20 21 22 23 24
12 11 10 11 13 14 15 17 18 18 19 18 18 19 21 22 23 22 22 23 24 24 22 22 22 21 20 19 20 21 22 23 21 19 20 24 28 29 29 29 28 28 27 28 26 24 23 23 23 23 23 22 22 22 23 24 25 26 25 23 22 22 21 20 21 22 22 22 21 21 20 21 22 23 22 22 21 21 21 21 22 23 24 24 26
16 17 16 17 18 18 18 20 21 21 21 21 21 22 24 25 25 24 21 20 22 22 22 24 25 23 21 20 20 21 22 23 22 19 18 20 25 29 31 30 28 27 27 27 26 25 25 25 26 26 25 23 22 23 24 25 26 25 22 20 20 20 20 21 22 22 22 21 20 21 22 23 23 23 22 22 22 22 22 22 22 23 24 25 26
Wind_Direction
192 192 193 199 201 198 198 197 193 192 196 198 196 192 189 195 202 204 203 214 218 201 185 183 190 195 196 194 198 199 195 195 195 191 190 189 188 187 186 185 183 182 178 176 175 175 179 183 179 182 179 162 152 145 136 117 86 66 49 33 9 351 351 346 335 340 354 353 345 349 351 341 336 338 338 332 329 328 328 331 338 343 343 339 335
192 192 193 197 198 197 198 197 193 194 196 197 199 201 199 199 205 206 204 216 215 189 180 184 189 193 195 196 199 198 196 197 194 192 192 191 189 185 185 187 183 180 180 180 184 184 185 185 178 174 173 163 150 143 143 127 97 68 39 17 6 355 345 342 339 336 343 352 350 348 347 339 334 338 335 327 327 325 324 333 341 343 343 340 336
191 194 193 194 196 197 197 196 197 199 199 198 202 207 202 197 205 209 207 217 207 184 182 187 189 193 196 196 199 197 197 197 195 194 195 193 189 186 188 189 184 183 185 184 185 188 188 184 178 173 169 165 155 145 148 139 107 85 40 9 355 351 344 339 340 336 334 342 347 343 339 337 334 331 328 326 324 322 326 337 342 342 344 343 339
192 194 193 193 196 197 195 196 199 201 200 199 203 206 201 199 206 208 210 221 202 185 186 191 191 193 194 195 197 196 198 198 196 197 196 192 190 190 193 189 182 184 187 185 186 189 190 184 180 182 176 174 175 157 149 150 105 87 28 2 347 345 345 342 342 337 329 331 339 338 334 334 330 325 327 325 320 324 333 338 339 342 346 346 342
193 194 193 194 194 194 195 197 199 202 201 199 202 204 201 204 209 207 210 213 196 188 190 190 189 189 190 194 195 196 198 197 197 198 194 191 192 193 191 183 179 186 189 188 189 189 190 190 187 190 188 183 183 165 151 163 151 57 1 354 348 344 345 343 343 341 332 328 331 333 333 329 325 327 330 324 322 331 337 336 338 343 346 346 344
193 193 192 192 191 193 197 198 200 204 203 199 200 202 202 207 209 207 209 205 194 192 188 185 186 186 187 192 193 196 199 196 197 198 192 191 192 190 187 182 184 194 195 192 194 195 194 196 197 197 199 196 189 179 170 184 286 334 348 346 341 341 342 343 344 345 339 330 329 332 333 330 328 330 329 326 329 336 335 333 340 347 347 345 343
193 192 191 192 194 197 199 201 203 204 201 199 200 201 203 207 207 206 206 199 195 193 185 183 186 185 186 187 187 193 196 193 195 195 191 191 190 188 189 190 192 197 197 194 198 200 199 202 206 203 203 209 204 194 195 237 311 329 341 340 338 341 343 343 346 347 343 338 338 338 337 336 335 331 329 333 338 338 335 335 339 346 347 345 341
192 191 192 195 197 197 198 201 203 202 200 200 200 201 204 206 204 203 201 196 196 192 186 187 186 181 181 180 180 188 193 193 196 197 194 192 193 194 195 196 196 192 192 199 200 201 202 206 209 204 201 214 222 222 246 283 317 332 335 336 338 341 343 342 344 346 345 345 346 344 340 340 338 334 335 341 340 337 339 339 338 342 343 342 340
193 194 194 195 195 197 200 202 201 200 200 200 200 203 206 203 200 199 196 194 196 191 188 189 183 176 178 182 188 198 203 203 204 202 201 200 200 202 198 197 198 191 192 203 203 202 208 210 206 203 203 209 225 238 257 283 310 327 330 335 339 338 340 342 343 345 347 348 348 346 343 342 340 337 339 342 338 337 342 343 340 340 338 337 339
194 194 192 192 194 197 200 200 199 199 201 201 201 204 203 198 195 196 194 195 195 191 189 187 181 181 187 192 200 211 214 211 207 205 204 203 202 203 197 194 198 196 196 205 204 200 211 216 205 204 212 213 231 254 265 292 315 327 329 332 334 334 340 346 347 348 347 347 348 346 344 341 338 337 339 341 341 342 345 344 339 338 337 333 335
193 193 189 189 193 196 198 199 199 199 201 200 201 202 198 194 194 194 195 197 196 193 194 190 187 193 200 204 214 222 217 209 206 206 205 201 199 199 196 193 196 197 197 205 205 198 208 223 211 205 218 220 227 247 259 297 319 326 327 325 328 337 345 347 346 346 345 345 346 345 342 337 336 340 343 344 346 346 345 343 338 336 336 332 330
190 190 188 189 193 197 199 200 199 199 200 200 201 199 192 189 194 195 199 204 201 200 202 199 196 200 206 213 224 223 215 209 207 205 203 200 198 196 194 193 192 194 198 202 206 203 211 226 224 217 225 224 227 244 263 300 315 322 321 320 331 343 344 341 340 340 341 341 342 342 341 336 337 345 349 347 346 345 344 342 338 336 334 332 329
187 188 186 186 190 195 199 201 200 199 199 199 199 196 189 188 196 202 208 210 207 207 209 205 202 203 208 220 227 218 212 211 209 205 201 200 199 191 188 194 192 190 194 191 194 219 228 235 240 237 236 237 242 261 288 309 319 324 320 322 336 342 338 336 336 335 336 338 338 339 341 341 342 349 352 349 344 342 341 340 339 337 335 332 329
185 184 182 183 189 196 201 202 200 197 197 198 197 195 194 196 202 209 215 214 211 211 211 207 205 206 211 223 224 214 212 211 209 206 201 202 201 186 176 194 200 191 188 186 193 214 227 235 243 254 262 258 253 265 291 308 316 318 319 327 336 337 336 337 332 330 334 336 334 336 343 348 347 348 350 347 342 340 340 339 338 338 336 332 330
184 185 186 189 195 200 200 198 198 197 196 196 197 197 199 203 208 212 215 214 212 213 212 210 210 209 213 222 219 211 211 212 211 209 204 203 203 188 176 190 199 189 188 200 207 214 223 227 220 224 250 259 260 269 283 298 308 311 319 327 331 339 344 335 326 329 334 334 333 339 349 353 351 348 346 344 341 340 340 338 337 337 335 333 332
190 194 197 199 200 201 198 196 197 197 194 195 197 198 200 207 214 217 216 214 215 216 213 211 212 212 216 220 214 207 212 215 213 211 207 205 203 194 188 189 188 190 202 213 218 221 226 229 220 215 234 252 260 264 275 291 302 308 319 323 327 344 345 324 323 331 335 337 345 355 358 356 352 347 344 343 342 341 339 337 338 338 336 335 334
190 192 195 200 201 199 199 199 199 197 194 195 199 201 203 210 218 222 220 216 217 217 213 212 213 215 216 214 207 206 214 219 217 211 209 207 202 199 198 191 186 200 215 221 223 224 227 230 223 219 234 250 256 256 271 289 299 307 317 320 325 337 336 327 333 342 349 358 5 5 3 357 350 346 346 344 343 342 339 338 340 341 339 336 334
186 186 187 192 194 192 195 196 195 195 196 198 200 202 206 213 219 223 222 220 222 220 215 214 215 215 213 206 203 209 217 221 220 213 209 208 203 201 201 197 198 209 219 225 224 219 227 232 222 223 238 254 261 262 273 288 299 306 312 317 326 334 343 345 346 355 8 12 11 8 3 356 349 347 347 345 343 344 344 344 345 344 341 337 335
187 186 183 182 181 181 188 192 193 197 201 201 200 202 209 216 219 221 221 221 223 221 216 216 215 212 208 200 200 212 219 222 224 218 210 207 204 203 202 200 206 212 213 222 222 216 227 235 227 231 245 255 262 268 277 289 299 305 309 318 330 341 353 358 358 6 14 13 11 7 360 352 348 348 347 345 347 350 351 350 348 346 342 339 338
188 185 182 182 181 183 191 195 197 202 205 202 201 206 214 218 218 219 220 218 217 216 214 214 210 205 202 197 201 213 220 222 223 217 211 207 205 206 204 195 196 210 213 219 220 218 228 232 226 233 245 246 251 264 277 288 297 304 311 321 335 345 356 5 11 14 12 11 8 360 352 349 348 347 346 347 350 352 352 351 351 350 346 342 341
187 186 185 186 187 191 198 201 199 202 205 204 204 208 215 218 217 216 217 214 210 207 204 203 200 199 200 198 203 215 221 221 218 211 209 208 207 209 207 194 186 198 212 221 223 222 232 238 230 230 239 242 248 261 275 288 298 305 312 325 339 348 358 9 15 14 11 9 3 351 346 348 348 346 346 349 352 353 350 349 351 353 351 347 344
183 184 184 185 191 198 202 202 200 203 206 208 208 210 212 215 215 213 211 207 202 199 196 194 194 199 206 205 207 217 223 222 217 210 209 209 208 208 208 200 192 191 199 212 222 226 238 250 247 235 233 239 247 261 276 289 300 305 313 332 346 354 7 13 12 8 6 4 356 346 345 346 345 346 347 350 353 353 348 347 350 352 353 352 349
184 184 184 188 195 199 200 202 204 208 211 212 213 212 211 212 212 210 205 199 198 198 197 197 201 209 214 211 209 219 226 223 215 212 213 211 208 206 204 201 199 195 192 195 208 223 238 250 253 247 243 246 256 270 280 291 301 304 313 338 356 4 12 15 11 5 359 355 348 343 343 343 344 345 347 351 353 351 348 348 350 352 353 354 354
188 189 189 193 198 200 201 206 209 210 213 215 214 213 212 212 209 205 203 203 205 205 203 207 215 218 215 208 208 219 228 226 217 216 216 212 210 208 204 202 203 200 194 191 198 212 226 236 242 245 250 257 263 269 276 288 300 307 313 339 5 11 2 5 11 360 346 340 339 340 340 341 343 343 346 351 351 349 350 351 351 353 354 354 356
181 187 192 197 203 204 205 208 211 213 215 216 214 213 213 210 205 203 206 209 209 210 212 216 218 213 207 206 212 222 230 229 219 215 215 212 211 210 208 207 207 205 199 197 200 206 217 229 237 242 249 256 258 263 274 284 298 316 324 337 357 2 352 0 8 345 332 330 332 336 337 339 341 342 346 351 349 348 353 354 353 355 356 357 0
185 192 199 202 204 206 207 208 209 213 215 214 215 215 212 208 206 207 210 211 211 214 216 212 205 201 203 208 214 223 230 228 219 214 213 212 212 212 211 210 210 209 205 204 205 208 215 226 235 241 248 253 254 261 272 276 293 330 341 334 337 339 337 345 337 321 326 328 321 328 336 339 338 341 346 349 348 351 354 354 353 357 358 358 0
189 189 194 198 201 204 209 210 210 211 212 211 210 210 209 210 212 212 211 211 212 212 208 202 197 199 204 209 212 219 228 229 221 214 213 213 213 214 214 213 213 213 210 209 211 214 218 226 236 244 251 252 253 262 267 267 298 336 336 322 323 322 319 324 318 314 325 321 307 319 332 335 335 341 346 345 346 352 354 352 352 356 357 357 358
188 187 192 198 200 202 206 212 214 212 211 210 209 209 209 212 216 217 215 214 213 207 202 202 202 202 206 209 209 213 224 230 225 217 215 215 214 215 217 216 215 214 213 212 215 219 223 230 239 245 248 248 251 260 259 256 292 326 319 314 322 319 314 317 314 312 318 305 297 312 326 329 331 340 343 339 343 350 352 350 351 354 355 356 356
192 194 198 203 205 201 199 204 210 211 209 208 209 211 213 215 217 217 216 217 217 214 210 211 210 207 206 209 210 213 223 232 230 221 217 218 219 220 220 218 216 215 214 213 217 221 227 235 241 242 243 243 248 253 253 267 309 319 314 315 311 297 295 297 292 293 297 291 295 310 323 325 329 336 336 335 341 347 348 349 352 353 353 354 356
192 194 198 206 211 206 200 199 202 204 206 205 205 207 210 214 218 217 214 215 220 221 222 224 221 213 209 213 219 224 231 237 237 227 219 219 221 223 222 219 218 218 216 215 217 222 229 235 238 238 239 241 246 252 260 282 293 285 281 280 274 274 278 280 279 283 286 289 298 311 319 321 327 331 330 332 339 344 346 350 353 352 351 353 354
197 200 204 210 211 206 203 201 196 195 200 203 204 204 203 204 210 215 216 218 221 223 225 226 223 216 213 215 222 229 233 238 240 233 222 216 217 218 216 214 215 216 217 216 218 222 227 231 234 234 236 240 246 249 251 257 261 263 268 273 275 277 279 278 279 282 284 290 299 308 314 319 324 325 325 328 336 343 348 350 350 350 351 353 354
202 206 209 209 207 205 204 201 195 194 198 201 202 203 201 199 202 206 211 217 221 223 223 220 217 218 218 216 219 224 225 225 230 233 226 216 212 213 213 212 212 213 215 216 218 221 227 232 236 238 240 245 247 244 239 242 253 264 271 276 278 281 283 286 289 286 283 291 299 304 310 316 319 320 323 326 332 342 348 346 344 347 350 352 355
202 206 209 207 206 207 205 200 197 196 198 200 200 201 203 205 203 201 202 207 213 217 220 220 220 220 216 210 211 217 218 219 225 230 224 212 209 212 215 214 213 213 215 217 220 223 227 232 237 239 241 246 250 246 242 248 258 265 270 276 279 281 284 289 292 286 284 293 298 296 300 310 314 317 324 330 334 340 343 339 340 345 348 350 354
194 205 215 212 210 212 208 201 198 198 200 202 200 200 206 210 208 204 204 207 210 210 211 214 217 218 212 206 208 212 214 219 227 228 219 212 210 212 215 217 217 217 218 221 225 227 229 232 236 238 239 243 246 246 253 263 266 265 267 271 273 275 278 280 280 280 284 290 286 283 294 309 315 317 327 335 336 336 335 335 339 343 344 348 353
191 203 215 213 209 212 209 202 200 200 203 204 203 204 208 210 210 210 212 215 215 213 210 210 213 215 212 209 211 214 214 217 222 223 219 218 217 214 214 217 219 221 223 225 228 231 233 236 238 240 243 245 241 238 248 260 262 260 263 268 273 276 278 280 279 279 280 277 273 278 297 316 319 318 325 331 331 330 332 335 337 337 341 347 352
199 207 212 211 210 214 212 205 202 204 208 208 208 210 210 211 212 214 214 217 220 220 218 216 214 214 214 213 214 219 221 219 219 220 223 225 225 223 222 221 222 225 228 229 233 236 239 242 244 245 247 248 240 233 242 257 260 262 267 272 274 274 274 274 274 274 273 271 273 282 300 316 320 320 324 325 325 327 331 333 332 334 340 348 351
207 208 205 204 207 215 215 208 203 206 211 211 210 210 210 210 213 214 213 217 222 223 223 222 218 215 216 215 214 218 222 222 218 219 224 228 228 229 231 230 229 230 231 232 235 238 241 245 248 250 252 251 244 236 243 256 260 261 265 268 269 272 275 276 274 271 270 272 277 288 305 319 323 321 318 317 321 327 330 329 329 333 342 347 347
215 209 201 201 206 213 216 212 208 209 209 207 206 206 202 200 204 210 214 219 222 222 223 225 225 223 222 219 216 215 217 220 219 219 221 224 225 227 229 229 229 230 231 233 237 240 243 248 252 253 255 255 247 238 241 252 258 260 263 267 269 272 275 276 276 277 278 280 286 294 303 308 308 307 307 312 319 324 325 327 330 336 341 342 340
210 211 215 219 221 219 215 213 212 212 209 204 203 202 198 197 202 208 213 217 224 224 218 216 223 229 229 226 222 217 216 218 220 221 222 224 226 226 227 227 229 230 230 232 237 242 250 260 263 260 259 260 251 241 244 255 262 263 264 266 269 271 271 272 275 279 281 283 285 288 291 292 294 299 304 308 313 317 323 330 334 334 333 333 335
207 209 213 219 224 222 216 212 211 213 211 208 206 205 204 204 208 211 212 212 218 223 218 213 218 227 232 232 230 224 221 221 224 225 226 228 228 228 228 228 230 232 232 232 234 237 246 263 271 269 264 262 258 252 252 257 260 262 265 268 269 270 270 271 275 277 278 278 281 285 289 291 293 297 300 300 306 316 325 329 329 327 327 331 335
218 210 205 211 220 223 219 214 212 214 214 210 209 210 211 211 212 212 210 205 207 216 223 223 218 222 233 242 241 235 230 230 232 232 233 233 233 233 232 231 231 232 233 234 234 230 229 239 250 254 255 256 257 255 255 258 261 264 266 267 267 269 270 271 273 275 277 280 284 287 289 291 294 298 300 301 306 316 322 323 324 327 329 331 333
224 211 204 208 215 219 218 215 214 215 213 209 207 208 209 209 207 203 200 200 204 212 221 225 220 220 232 242 244 241 238 237 238 239 239 239 239 239 237 234 234 234 234 236 236 231 225 228 235 239 240 243 248 252 254 257 260 263 261 259 261 268 272 271 272 273 275 277 280 283 287 291 295 297 299 301 306 313 318 320 323 325 326 327 330
227 216 209 209 214 218 217 213 212 213 212 210 208 202 197 198 201 198 197 204 211 214 218 222 221 221 227 236 241 243 243 242 242 242 242 242 244 245 242 238 236 235 235 237 238 234 230 232 238 240 237 234 235 242 249 253 256 259 262 265 267 269 269 268 269 272 274 276 280 283 285 288 291 293 297 300 303 307 311 314 318 322 326 329 332
227 223 215 210 211 215 214 211 212 212 211 213 214 207 198 197 201 203 204 209 213 215 218 220 220 221 226 233 239 241 241 240 242 245 244 242 244 246 245 240 237 236 237 238 240 238 234 235 241 245 243 236 235 240 246 252 257 262 268 273 274 273 273 273 273 275 278 281 283 284 284 286 289 290 294 299 302 305 310 314 319 325 330 332 334
230 234 222 211 208 211 212 212 213 213 211 213 216 212 205 201 200 204 210 213 214 216 218 219 219 221 225 229 231 233 236 241 246 248 246 242 240 242 243 241 239 238 237 238 241 241 237 236 240 243 240 236 239 244 247 251 256 259 262 265 267 270 273 276 277 279 283 285 285 286 287 286 285 286 293 301 307 311 314 316 321 326 329 330 332
228 238 237 221 212 213 214 214 213 212 213 213 212 209 207 204 201 204 212 216 217 217 217 213 212 216 222 228 231 234 239 245 247 245 241 237 236 237 238 237 237 237 235 234 236 237 236 238 242 242 236 233 238 246 251 253 253 251 251 256 262 267 270 273 274 277 279 281 285 288 285 278 276 286 298 306 311 313 313 315 319 323 325 326 328
222 237 250 234 219 217 218 218 217 216 216 216 213 210 208 207 205 206 212 216 216 214 211 209 209 215 224 233 238 240 242 245 242 235 230 229 230 231 231 231 232 232 228 226 228 231 234 238 241 240 237 238 243 250 255 259 259 257 257 260 265 268 271 273 274 276 277 278 280 285 283 277 279 290 299 304 308 310 311 312 316 318 319 321 324
215 233 243 233 224 223 221 220 220 220 219 220 220 215 211 210 210 209 210 212 211 210 211 213 216 220 225 231 239 245 247 245 237 229 225 225 226 226 225 226 226 223 219 218 223 229 233 236 238 238 239 245 251 255 257 259 261 262 264 264 264 265 267 268 269 269 269 266 267 273 281 285 287 292 297 301 305 307 308 309 311 313 316 318 321
214 233 242 233 225 222 220 220 222 219 214 214 216 212 207 209 212 212 209 208 209 210 211 214 217 220 223 228 234 239 241 242 238 231 225 224 223 220 217 216 217 218 218 221 227 233 237 239 239 239 242 247 253 257 260 260 261 263 266 267 267 266 266 265 265 266 266 267 269 274 279 284 287 291 295 299 301 301 302 303 306 310 313 316 318
215 224 225 218 211 208 207 209 211 207 203 205 210 211 208 209 213 215 213 212 214 215 215 215 216 217 218 222 226 229 234 239 243 243 237 231 227 223 219 217 218 222 227 232 236 239 242 243 242 242 245 248 250 254 259 261 263 268 271 272 270 268 266 264 264 266 268 270 273 276 279 283 287 290 293 296 297 297 298 300 304 308 311 315 318
219 214 205 198 198 200 202 205 205 204 205 207 208 210 213 215 216 214 213 213 217 220 220 218 217 218 219 222 226 228 232 238 244 248 249 244 236 229 226 225 226 230 235 238 240 242 243 243 244 247 250 252 252 254 258 262 266 270 273 271 267 265 265 264 265 267 269 271 274 278 281 285 288 289 291 293 295 296 298 300 303 307 311 314 317